Regional Weather Roundup
Issued by NWS Kansas City/Pleasant Hill, MO

Home | Current Version | Previous Version | Graphics & Text | Print | Product List | Glossary Off
Versions: 1 2 3 4 5 6 7 8 9 10 11 12 13 14 15 16 17 18 19 20 21 22 23 24 25 26 27 28 29 30 31 32 33 34 35 36 37 38 39 40 41 42 43 44 45 46 47 48 49 50

000
ASUS43 KEAX 270711
RWREAX

WEATHER ROUNDUP FOR EASTERN KANSAS AND NORTHWEST MISSOURI
NATIONAL WEATHER SERVICE KANSAS CITY/PLEASANT HILL MO
200 AM CDT WED MAY 27 2015

KSZ040-057-103>105-MOZ028-029-037-043-270800-
...KANSAS CITY METROPOLITAN AREA...

CITY           SKY/WX    TMP DP  RH WIND       PRES   REMARKS
K.C. INTL      PTCLDY    62  56  80 W5        29.96R
K.C. DOWNTOWN  CLEAR     66  56  70 SW7       29.95R
LEES SUMMIT    PTCLDY    65  61  87 SW6       29.97R
OLATHE - IXD   CLEAR     61  60  97 S3        29.98S
OLATHE - OJC   PTCLDY    63  61  93 W3        29.96F
LAWRENCE       CLEAR     59  58  96 NW3       29.97S

$$

MOZ001>008-011>017-020>025-030>033-038>040-044>046-053-054-270800-
...NORTHERN AND CENTRAL MISSOURI...

CITY           SKY/WX    TMP DP  RH WIND       PRES   REMARKS
ST. JOSEPH     CLEAR     61  58  90 CALM      29.96R
MOSBY          SUNNY     63  57  82 W5        29.95S
WARRENSBURG    PTCLDY    64  61  88 SW5       29.94F
WHITEMAN AFB   PTCLDY    67  63  85 SW8       29.94F
CLINTON        PTCLDY    66  64  94 CALM      29.96F
SEDALIA        PTCLDY    68  61  78 SW8       29.96S
WARSAW         NOT AVBL
CHILLICOTHE      N/A     60  59  96 SW3       29.94S
KIRKSVILLE     CLEAR     61  60  97 SW6       29.93S

$$

MOZ041-047>049-056>058-063>065-088>090-097-270800-
...EASTERN AND SOUTHERN MISSOURI...

CITY           SKY/WX    TMP DP  RH WIND       PRES   REMARKS
ST. LOUIS INTL PTCLDY    71  61  70 SW9       29.98R
SPIRIT OF STL  CLEAR    N/A N/A N/A CALM      29.96S
COLUMBIA       CLEAR     65  61  87 S9        29.96R
JEFFERSON CITY PTCLDY    67  61  81 CALM      29.96R
ROLLA          CLEAR     65  61  87 S13       29.98R
OSAGE BEACH    CLOUDY    64  61  88 CALM      29.97S
SPRINGFIELD    CLOUDY    68  61  78 S10       29.99F
BRANSON        CLOUDY    66  64  94 CALM      30.03S
JOPLIN         CLOUDY    67  65  93 NW3       29.98S
WEST PLAINS    PTCLDY    66  62  87 S9        30.06R

$$

IAZ060-094-KSZ022-034>040-054-083-096-NEZ052-066-093-270800-
...KANSAS...SOUTHEAST NEBRASKA AND IOWA...

CITY           SKY/WX    TMP DP  RH WIND       PRES   REMARKS
TOPEKA         PTCLDY    61  59  93 CALM      29.97F
MANHATTAN      PTCLDY    57  55  93 S5        29.99R
EMPORIA        CLEAR     61  59  93 W5        29.99S
CHANUTE        CLOUDY    63  62  97 CALM      29.97F
WICHITA        MOCLDY    65  62  90 SW6       29.99F
OMAHA          CLEAR     55  54  96 S3        29.94S
LINCOLN        CLEAR     59  51  75 NW3       29.97S
FALLS CITY     CLEAR     58  54  86 W6        29.95R
LAMONI         CLEAR     62  57  83 W8        29.91F
DES MOINES     MOCLDY    60  57  89 W6        29.89R

$$



USA.gov is the U.S. government's official web portal to all federal, state and local government web resources and services.